PEGASUS DEB, 24151

Orbit data source: Space-Track

PEGASUS DEB, 24151 is space debris in LEO originally from a launch on Thu, 19 May 1994 UTC launched from the Air Force Western Test Range (AFWTR). Debris objects in space refer to the collection of defunct objects orbiting the Earth. Examples of debris include non-operational satellites, rocket bodies, and fragments generated from explosions, collisions, or faulty payload assembly.

Loading next visibility...
Identifier
24151, 1994-029HA
Orbit
LEO
Country
Flag of USUS
Related business
Manufacturer
Unknown
Mission
Spacecraft
Bus & Motor
Unknown
Mass
Unknown
Launch date (UTC)
1994-05-19 (32 years ago)
Launch vehicle
Unknown
Launch site
Air Force Western Test Range (AFWTR)
Object type
Payload
Rocket body
Debris
Shape & HBR
Unknown shape, 0.2 m
Radar Cross Section
Medium (>0.1 m² and <1 m²)

Expand to show TLE details & history
Last TLE update: 8 hours ago

TLE from 8 hours ago
0 PEGASUS DEB
1 24151U 94029HA  26165.51298210  .00001153  00000-0  18419-3 0  9991
2 24151  82.0173 191.9739 0150666  55.0550 306.4697 14.63645140592510
Epoch: 2026-06-14T12:18Z
TLE epoch observation values (Epoch: 2026-06-14T12:18:41.653Z)
Latitude
-0.00007°
Longitude
104.48769°
Altitude
622.24 km
Speed
7.581 km/s
True Right ascension
12h 47m 53s
True Declination
0° 00' 00"
Sunlit
Object was in daylight at epoch
Visualization orbit readout
Latitude
Unknown
Longitude
Unknown
Altitude
Unknown
Speed
Unknown
Apparent Right ascension
Unknown
Apparent Declination
Unknown
Sunlit
N/A
Visualization observer readout
Local Sidereal Time
06:42:33
Azimuth
Unknown
Elevation
Unknown
Doppler factor
Unknown
Orbital elements
Apogee altitude
784.813 km
Perigee altitude
572.175 km
Semi-major axis
7,056.631 km
Eccentricity
0.01507
Inclination
82.0173°
RAAN
191.9739°
Arg. of periapsis
55.055°
True anomaly
305.06572°
Mean anomaly
306.4697°
Eccentric anomaly
305.76928°
Mean motion
3.6614 °/min
Orbital period
98.32 mins
BSTAR
0.00018419
Loading maneuver chart data...
Computing Atmospheric mass density...

Documentation

Showing up to 5 results
|